Location: Karcze
(52.0945°N, 22.4786°E)
Time: 19:31:03
(UTC+00:00)

Transit 2A Rocket - Pass Details

Date: 01 August 2021
Orbit: 586 x 917 km, 66.7° (Epoch: 27 September)

Event Time Altitude Azimuth Distance (km) Brightness Sun altitude
Rises 20:46:37 0° 320° (NW) 3,221 9.8 -16.1°
Reaches altitude 10° 20:48:55 10° 319° (NW) 2,342 8.7 -16.3°
Maximum altitude 20:54:20 79° 235° (SW) 853 5.2 -16.7°
Enters shadow 20:57:34 28° 151° (SSE) 1,576 6.0 -16.9°
Drops below altitude 10° 21:00:13 10° 149° (SSE) 2,529 - -17.0°
Sets 21:02:47 0° 148° (SSE) 3,495 - -17.2°
